CZ-6A DEB, 54922

Orbit data source: Space-Track

CZ-6A DEB, 54922 is space debris in SSO originally from a launch on Fri, 11 Nov 2022 UTC launched from the Taiyaun Space Center, China (TSC). Debris objects in space refer to the collection of defunct objects orbiting the Earth. Examples of debris include non-operational satellites, rocket bodies, and fragments generated from explosions, collisions, or faulty payload assembly.

Loading next visibility...
Identifier
54922, 2022-151RK
Orbit
SSO
Country
Flag of CNCN / PRC
Related business
Manufacturer
SAST
Mission
Spacecraft
Bus & Motor
Unknown
Mass
Unknown
Launch date (UTC)
2022-11-11 (4 years ago)
Launch vehicle
Unknown
Launch site
Taiyaun Space Center, China (TSC)
Object type
Payload
Rocket body
Debris
Shape & HBR
Unknown shape, 0.1 m
Radar Cross Section
Medium (>0.1 m² and <1 m²)

Expand to show TLE details & history
Last TLE update: 2 days ago

TLE from 2 days ago
0 CZ-6A DEB
1 54922U 22151RK  26171.19106239  .00099806  00000-0  49858-2 0  9999
2 54922  98.6222 259.0571 0030674 207.8238 152.1353 15.16620002188743
Epoch: 2026-06-20T04:35Z
TLE epoch observation values (Epoch: 2026-06-20T04:35:07.790Z)
Latitude
0.00004°
Longitude
-78.1346°
Altitude
537.826 km
Speed
7.583 km/s
True Right ascension
17h 16m 13s
True Declination
0° 00' 00"
Sunlit
Object was in full shadow at epoch
Visualization orbit readout
Latitude
Unknown
Longitude
Unknown
Altitude
Unknown
Speed
Unknown
Apparent Right ascension
Unknown
Apparent Declination
Unknown
Sunlit
N/A
Visualization observer readout
Local Sidereal Time
21:37:31
Azimuth
Unknown
Elevation
Unknown
Doppler factor
Unknown
Orbital elements
Apogee altitude
534.229 km
Perigee altitude
491.953 km
Semi-major axis
6,891.228 km
Eccentricity
0.00307
Inclination
98.6222°
RAAN
259.0571°
Arg. of periapsis
207.8238°
True anomaly
152.29903°
Mean anomaly
152.1353°
Eccentric anomaly
152.21722°
Mean motion
3.79401 °/min
Orbital period
94.89 mins
BSTAR
0.0049858
Loading maneuver chart data...
Computing Atmospheric mass density...
Loading historical data...
Loading historical data...
Loading historical data...
Loading historical data...
Loading historical data...
Loading historical data...
Loading historical data...

Documentation

Showing up to 5 results
|